Kuiper-00184

operational
NORAD ID: 67139 Int'l Des: 2025-301 Owner: KUIP Country: US Constellation: kuiper
LEOCIRCULAR

关于 Kuiper-00184

正在加载描述...

实时位置

正在加载3D地球...

即将过境

高度历史

Altitude vs Time

uPlot chart will show altitude changes over time

两行轨道根数

1 67139C 25301G 25350.86954861 .00012462 00000+0 36710-3 0 3504
2 67139 51.8622 105.2167 0009351 117.0173 234.9915 15.34391521 10
Epoch: Dec 16, 2025 • Age: 76 hours

当前状态

高度 463.1 km
速度 7.64 km/s
星下点 51.69°N, 44.54°E
发射日期 Dec 16, 2025
运行时间 3 days
类型 internet

技术详情

分类 Payload
质量 490.00 kg
干质量 490.00 kg
总质量 490.00 kg
长度 1.80 m
直径 0.70 m
跨度 5.00 m
形状 Box + 2 pan
制造商 KUIP
平台类型 Kuiper
阶段状态 In Orbit
所有者/国家 KUIP/US

大型星座

Loading constellations...